WXM80 ListenWXM80 Stop

You find our weather info also at:

UK Metoffice

WeatherCloud

Weather Underground

Northeastern Weather Network

AWEKAS

Citizen Weather Observer Program (CWOP)

HAMweather, WeatherForYou, PWS Weather


Weather Underground History page Text

Daily Summary for November 28, 2017 Units:  Metric    English   Both
« Previous Day
Next Day »
Daily Weekly Monthly Yearly Custom
  High: Low: Average:
Temperature: 10.4 °C 0.9 °C 6.3 °C
Dew Point: 8.7 °C -3.4 °C 1.5 °C
Humidity: 91 % 52 % 72 %
Wind Speed: 10.3 km/h 0 km/h 3.5 km/h
Wind Gust: 18.5 km/h - -
Wind:- - SE
Pressure: 1032.4 hPa 1016.5 hPa -
Precipitation: 0 mm    
Historical Graphs
 
 
Tabular Data for November 28, 2017
Time Temperature Dew Point Pressure Wind Wind Speed Wind Gust Humidity Rainfall Rate (Hourly)
00:02 3.7 °C -3.3 °C 1027 hPa NNW 2.4 km/h 5.6 km/h 60 % 0 mm
00:07 3.7 °C -3.4 °C 1026.6 hPa NNE 2.6 km/h 5.6 km/h 60 % 0 mm
00:09 3.7 °C -3.2 °C 1027 hPa North 2.9 km/h 5.6 km/h 61 % 0 mm
00:14 3.6 °C -3.3 °C 1027 hPa NNE 1.6 km/h 7.4 km/h 61 % 0 mm
00:19 3.5 °C -3.3 °C 1027 hPa North 5 km/h 6.4 km/h 61 % 0 mm
00:24 3.4 °C -2.9 °C 1027 hPa North 3.7 km/h 5.6 km/h 63 % 0 mm
00:25 3.4 °C -3.2 °C 1027 hPa North 1.6 km/h 5.6 km/h 62 % 0 mm
00:30 3.4 °C -3 °C 1027 hPa North 5.1 km/h 9.3 km/h 63 % 0 mm
00:35 3.3 °C -2.8 °C 1027 hPa North 2.7 km/h 5.6 km/h 64 % 0 mm
00:39 3.3 °C -2.6 °C 1027.3 hPa North 5.6 km/h 9.7 km/h 65 % 0 mm
00:44 3.3 °C -2.7 °C 1027 hPa NNE 1.3 km/h 5.6 km/h 65 % 0 mm
00:49 3.2 °C -2.7 °C 1027 hPa NNE 3.7 km/h 7.4 km/h 65 % 0 mm
00:54 3.2 °C -2.7 °C 1027 hPa North 1.1 km/h 8 km/h 65 % 0 mm
00:59 3.2 °C -3 °C 1027.3 hPa NNE 1.4 km/h 5.6 km/h 64 % 0 mm
01:04 3.2 °C -2.8 °C 1027.3 hPa NNE 2.6 km/h 5.6 km/h 65 % 0 mm
01:09 3.1 °C -2.8 °C 1027.3 hPa NE 1 km/h 5.6 km/h 65 % 0 mm
01:14 3.1 °C -2.9 °C 1027.7 hPa North 2.9 km/h 5.6 km/h 65 % 0 mm
01:19 3 °C -2.7 °C 1027.7 hPa NNE 3.4 km/h 5.6 km/h 66 % 0 mm
01:24 2.9 °C -3 °C 1027.7 hPa NNE 6.4 km/h 8 km/h 65 % 0 mm
01:29 2.9 °C -3 °C 1028 hPa NNE 1.1 km/h 5.6 km/h 65 % 0 mm
01:34 2.9 °C -2.8 °C 1028 hPa NNE 2.1 km/h 5.6 km/h 66 % 0 mm
01:39 2.9 °C -2.8 °C 1028 hPa NNE 9.5 km/h 13 km/h 66 % 0 mm
01:44 2.9 °C -2.8 °C 1028 hPa NNE 7.9 km/h 11.1 km/h 66 % 0 mm
01:49 2.9 °C -2.8 °C 1028 hPa ENE 2.3 km/h 7.4 km/h 66 % 0 mm
01:54 2.9 °C -2.8 °C 1028 hPa NNE 5.3 km/h 6.4 km/h 66 % 0 mm
01:59 2.9 °C -2.8 °C 1027.7 hPa NNE 4 km/h 7.4 km/h 66 % 0 mm
02:04 2.9 °C -2.8 °C 1027.7 hPa NNE 1.9 km/h 5.6 km/h 66 % 0 mm
02:09 2.9 °C -2.8 °C 1027.7 hPa North 3.5 km/h 5.6 km/h 66 % 0 mm
02:15 2.9 °C -2.8 °C 1028 hPa ENE 3.2 km/h 5.6 km/h 66 % 0 mm
02:20 2.9 °C -2.8 °C 1028 hPa NE 0.3 km/h 5.6 km/h 66 % 0 mm
02:25 2.8 °C -3.1 °C 1028 hPa NE 2.4 km/h 7.4 km/h 65 % 0 mm
02:30 2.8 °C -2.9 °C 1028 hPa NNE 6.1 km/h 9.3 km/h 66 % 0 mm
02:35 2.8 °C -2.9 °C 1028 hPa ENE 1.9 km/h 7.4 km/h 66 % 0 mm
02:40 2.8 °C -2.7 °C 1028.3 hPa NNE 2.6 km/h 9.3 km/h 67 % 0 mm
02:45 2.8 °C -2.7 °C 1028.3 hPa NNE 0.6 km/h 5.6 km/h 67 % 0 mm
02:50 2.8 °C -2.6 °C 1028.3 hPa NE 3.5 km/h 5.6 km/h 68 % 0 mm
02:55 2.7 °C -2.6 °C 1028.3 hPa NNE 4.5 km/h 7.4 km/h 68 % 0 mm
03:00 2.7 °C -2.8 °C 1028.7 hPa North 1.6 km/h 5.6 km/h 67 % 0 mm
03:05 2.7 °C -2.7 °C 1028.7 hPa NE 3.5 km/h 5.6 km/h 68 % 0 mm
03:10 2.7 °C -2.3 °C 1028.3 hPa NNE 2.6 km/h 5.6 km/h 70 % 0 mm
03:15 2.7 °C -2.4 °C 1028.3 hPa NNE 3.1 km/h 5.6 km/h 69 % 0 mm
03:20 2.6 °C -2.3 °C 1028.7 hPa East 3.9 km/h 11.1 km/h 70 % 0 mm
03:25 2.6 °C -2.1 °C 1028.7 hPa ENE 3.4 km/h 11.1 km/h 71 % 0 mm
03:30 2.6 °C -1.9 °C 1029 hPa NE 3.7 km/h 14.8 km/h 72 % 0 mm
03:35 2.7 °C -1.9 °C 1028.7 hPa NNE 4.5 km/h 7.4 km/h 72 % 0 mm
03:40 2.7 °C -1.9 °C 1029 hPa NE 1.4 km/h 7.4 km/h 72 % 0 mm
03:45 2.6 °C -2.1 °C 1029 hPa ENE 3.4 km/h 7.4 km/h 71 % 0 mm
03:50 2.6 °C -1.9 °C 1029 hPa NNE 2.7 km/h 5.6 km/h 72 % 0 mm
03:55 2.6 °C -2 °C 1029 hPa ENE 2.3 km/h 13 km/h 72 % 0 mm
04:00 2.6 °C -2 °C 1028.7 hPa NE 5.3 km/h 9.3 km/h 72 % 0 mm
04:05 2.5 °C -2.1 °C 1029 hPa NNE 2.6 km/h 5.6 km/h 72 % 0 mm
04:06 2.6 °C -2 °C 1028.7 hPa NE 2.7 km/h 5.6 km/h 72 % 0 mm
04:11 2.4 °C -2.1 °C 1029 hPa NNE 3.7 km/h 9.3 km/h 72 % 0 mm
04:16 2.4 °C -2.3 °C 1029 hPa ENE 2.9 km/h 5.6 km/h 71 % 0 mm
04:21 2.4 °C -2.3 °C 1029 hPa ENE 4 km/h 9.3 km/h 71 % 0 mm
04:26 2.4 °C -2.3 °C 1029 hPa NNE 1.4 km/h 4.8 km/h 71 % 0 mm
04:31 2.3 °C -2.4 °C 1029.3 hPa ENE 3.4 km/h 5.6 km/h 71 % 0 mm
04:36 2.3 °C -2.4 °C 1029.3 hPa ENE 4.2 km/h 5.6 km/h 71 % 0 mm
04:41 2.3 °C -2.2 °C 1029.3 hPa ENE 3.7 km/h 5.6 km/h 72 % 0 mm
04:46 2.3 °C -2 °C 1029.7 hPa ENE 7.4 km/h 13 km/h 73 % 0 mm
04:51 2.4 °C -2.2 °C 1029.3 hPa ENE 4.3 km/h 9.3 km/h 72 % 0 mm
04:56 2.4 °C -2.2 °C 1029.3 hPa ENE 4.5 km/h 7.4 km/h 72 % 0 mm
05:01 2.4 °C -1.9 °C 1029.7 hPa ENE 5.3 km/h 11.1 km/h 73 % 0 mm
05:06 2.4 °C -1.9 °C 1029.3 hPa ENE 6.8 km/h 13 km/h 73 % 0 mm
05:11 2.4 °C -1.9 °C 1029.7 hPa ENE 4.3 km/h 13 km/h 73 % 0 mm
05:16 2.4 °C -2.6 °C 1029.7 hPa ENE 6.9 km/h 14.8 km/h 70 % 0 mm
05:21 2.4 °C -2.3 °C 1029.7 hPa NE 8 km/h 13 km/h 71 % 0 mm
05:22 2.4 °C -2.3 °C 1029.7 hPa NE 8 km/h 13 km/h 71 % 0 mm
05:27 2.4 °C -2.6 °C 1029.7 hPa ENE 5.3 km/h 14.8 km/h 70 % 0 mm
05:32 2.4 °C -2.6 °C 1029.7 hPa ENE 6 km/h 11.1 km/h 70 % 0 mm
05:37 2.4 °C -2.6 °C 1029.7 hPa ENE 5.8 km/h 7.4 km/h 70 % 0 mm
05:42 2.4 °C -2.6 °C 1029.7 hPa ENE 6.8 km/h 13 km/h 70 % 0 mm
05:47 2.3 °C -2.4 °C 1030 hPa ENE 8 km/h 14.8 km/h 71 % 0 mm
05:48 2.3 °C -2.4 °C 1030 hPa ENE 6 km/h 13 km/h 71 % 0 mm
05:53 2.3 °C -2.2 °C 1030 hPa ENE 6.1 km/h 13 km/h 72 % 0 mm
05:58 2.4 °C -1.9 °C 1030 hPa ENE 7.9 km/h 13 km/h 73 % 0 mm
06:03 2.4 °C -1.8 °C 1030 hPa ENE 4.8 km/h 7.4 km/h 74 % 0 mm
06:08 2.4 °C -1.9 °C 1030 hPa ENE 3.9 km/h 5.6 km/h 73 % 0 mm
06:13 2.4 °C -1.8 °C 1030 hPa East 5.5 km/h 8 km/h 74 % 0 mm
06:18 2.3 °C -1.8 °C 1030 hPa East 3.5 km/h 5.6 km/h 74 % 0 mm
06:23 2.3 °C -1.8 °C 1030.4 hPa East 3.2 km/h 5.6 km/h 74 % 0 mm
06:28 2.3 °C -1.9 °C 1030.4 hPa East 3.4 km/h 5.6 km/h 74 % 0 mm
06:33 2.3 °C -1.9 °C 1030.7 hPa East 1.1 km/h 3.7 km/h 74 % 0 mm
06:38 2.3 °C -2.1 °C 1031 hPa East 1 km/h 1.9 km/h 73 % 0 mm
06:43 2.2 °C -2.1 °C 1031 hPa Calm   1.9 km/h 73 % 0 mm
06:48 2.2 °C -2.2 °C 1031 hPa East 1.4 km/h 3.7 km/h 73 % 0 mm
06:53 2.1 °C -2.3 °C 1031 hPa East 0.3 km/h 1.9 km/h 73 % 0 mm
06:58 1.9 °C -2.2 °C 1031 hPa East 0.2 km/h 3.7 km/h 74 % 0 mm
07:18 1.3 °C -2.4 °C 1031.4 hPa SSE 0.2 km/h 1.6 km/h 76 % 0 mm
07:28 1.2 °C -2.6 °C 1031.4 hPa Calm     76 % 0 mm
07:33 1.1 °C -2.7 °C 1031.4 hPa ENE 1.8 km/h 1.9 km/h 76 % 0 mm
07:49 0.9 °C -2.6 °C 1031.7 hPa ENE 0.5 km/h 3.2 km/h 77 % 0 mm
07:54 0.9 °C -2.6 °C 1031.7 hPa SE 1 km/h 3.7 km/h 77 % 0 mm
08:04 1.1 °C -2.7 °C 1031.7 hPa SE 2.1 km/h 5.6 km/h 76 % 0 mm
08:09 1.2 °C -2.7 °C 1031.7 hPa SE 1.1 km/h 3.7 km/h 75 % 0 mm
08:14 1.4 °C -2.7 °C 1031.7 hPa Calm   1.6 km/h 74 % 0 mm
08:19 1.6 °C -2.7 °C 1032.1 hPa SE 1.8 km/h 5.6 km/h 73 % 0 mm
08:24 1.8 °C -2.7 °C 1031.7 hPa ESE 1.3 km/h 5.6 km/h 72 % 0 mm
08:29 2 °C -2.7 °C 1031.7 hPa East 0.3 km/h 1.9 km/h 71 % 0 mm
08:34 2.2 °C -2.7 °C 1031.7 hPa East 3.2 km/h 5.6 km/h 70 % 0 mm
08:39 2.4 °C -2.7 °C 1031.7 hPa East 2.1 km/h 5.6 km/h 69 % 0 mm
08:44 2.6 °C -2.7 °C 1031.7 hPa East 2.3 km/h 3.7 km/h 68 % 0 mm
08:49 2.8 °C -2.7 °C 1031.7 hPa SSE 3.5 km/h 11.3 km/h 67 % 0 mm
08:54 3.1 °C -2.5 °C 1031.7 hPa East 2.4 km/h 9.3 km/h 67 % 0 mm
08:59 3.4 °C -2.4 °C 1032.1 hPa East 5.1 km/h 9.7 km/h 66 % 0 mm
09:04 3.8 °C -2 °C 1032.1 hPa ESE 1.6 km/h 1.9 km/h 66 % 0 mm
09:06 3.8 °C -2.2 °C 1032.1 hPa East 1.6 km/h 9.7 km/h 65 % 0 mm
09:11 4.1 °C -1.9 °C 1032.1 hPa ESE 1.6 km/h 6.4 km/h 65 % 0 mm
09:16 4.4 °C -2 °C 1032.1 hPa ESE 3.2 km/h 8 km/h 63 % 0 mm
09:21 4.7 °C -1.8 °C 1032.1 hPa ESE 4.8 km/h 14.5 km/h 63 % 0 mm
09:26 4.8 °C -1.8 °C 1032.1 hPa East 4 km/h 5.6 km/h 62 % 0 mm
09:31 5.1 °C -1.7 °C 1032.1 hPa East 4.8 km/h 11.3 km/h 62 % 0 mm
09:36 5.2 °C -1.7 °C 1032.1 hPa East 3.2 km/h 9.7 km/h 61 % 0 mm
09:41 5.3 °C -1.3 °C 1032.1 hPa East 4.8 km/h 9.7 km/h 62 % 0 mm
09:46 5.6 °C -1.4 °C 1032.4 hPa East 3.2 km/h 9.7 km/h 61 % 0 mm
09:51 5.7 °C -1.7 °C 1032.1 hPa East 3.2 km/h 9.7 km/h 59 % 0 mm
09:56 6.1 °C -1.4 °C 1032.4 hPa East 2.7 km/h 5.6 km/h 59 % 0 mm
10:06 6.6 °C -1.8 °C 1032.4 hPa East 2.4 km/h 3.7 km/h 55 % 0 mm
10:11 6.8 °C -2.2 °C 1032.1 hPa SE 1.6 km/h 7.4 km/h 53 % 0 mm
10:16 7 °C -1.9 °C 1032.4 hPa SE 0.5 km/h 1.9 km/h 53 % 0 mm
10:27 7.1 °C -1.9 °C 1032.4 hPa ENE 3.5 km/h 5.6 km/h 53 % 0 mm
10:37 6.8 °C -2.1 °C 1032.1 hPa ENE 0.8 km/h 3.7 km/h 53 % 0 mm
10:47 7 °C -1.9 °C 1032.1 hPa ENE 3.4 km/h 5.6 km/h 53 % 0 mm
10:52 7.1 °C -1.6 °C 1032.1 hPa NE 4.2 km/h 8 km/h 54 % 0 mm
10:57 6.9 °C -2.2 °C 1032.1 hPa ENE 2.9 km/h 8 km/h 52 % 0 mm
11:07 6.6 °C -2.6 °C 1031.7 hPa ENE 4.8 km/h 6.4 km/h 52 % 0 mm
11:12 6.6 °C -2.1 °C 1031.7 hPa ENE 2.6 km/h 5.6 km/h 54 % 0 mm
11:17 6.6 °C -1.8 °C 1031.4 hPa NE 1.9 km/h 5.6 km/h 55 % 0 mm
11:27 6.7 °C -0.9 °C 1031.4 hPa SSE 5.3 km/h 9.3 km/h 58 % 0 mm
11:32 6.9 °C -1 °C 1031.4 hPa SSE 6.3 km/h 7.4 km/h 57 % 0 mm
11:42 7.2 °C -0.6 °C 1031 hPa SSE 6 km/h 9.3 km/h 58 % 0 mm
11:52 7.4 °C -0.1 °C 1031 hPa SSE 9 km/h 12.9 km/h 59 % 0 mm
11:57 7.6 °C 0.3 °C 1030.7 hPa South 1.9 km/h 5.6 km/h 60 % 0 mm
12:02 7.8 °C 0.1 °C 1030.7 hPa SSE 10 km/h 14.8 km/h 58 % 0 mm
12:07 7.9 °C 0.2 °C 1030.7 hPa SSE 7.7 km/h 13 km/h 58 % 0 mm
12:12 8.1 °C 0.5 °C 1030.4 hPa SSE 8.9 km/h 11.1 km/h 59 % 0 mm
12:18 8.2 °C 0.7 °C 1030.4 hPa SE 5.5 km/h 14.8 km/h 59 % 0 mm
12:23 8.4 °C 0.8 °C 1030.4 hPa SSE 3.2 km/h 14.8 km/h 59 % 0 mm
12:28 8.6 °C 0.8 °C 1030 hPa SE 2.6 km/h 9.3 km/h 58 % 0 mm
12:38 8.8 °C 1 °C 1030 hPa SSW 8.4 km/h 14.8 km/h 58 % 0 mm
12:43 8.9 °C 1.1 °C 1030 hPa SSE 4.8 km/h 6.4 km/h 58 % 0 mm
12:48 9.1 °C 1.2 °C 1030 hPa SSE 3.2 km/h 7.4 km/h 58 % 0 mm
12:53 9.1 °C 1.4 °C 1029.7 hPa SE 1.1 km/h 7.4 km/h 59 % 0 mm
13:03 9.2 °C 1.6 °C 1029.7 hPa ESE 1.9 km/h 11.1 km/h 59 % 0 mm
13:08 9.2 °C 1.4 °C 1029.7 hPa South 6 km/h 11.3 km/h 58 % 0 mm
13:13 9.3 °C 1.4 °C 1029.7 hPa SSE 7.6 km/h 14.5 km/h 58 % 0 mm
13:23 9.3 °C 1.7 °C 1029.7 hPa SSE 8.7 km/h 11.1 km/h 59 % 0 mm
13:28 9.3 °C 1.7 °C 1029.3 hPa SW 7.1 km/h 11.1 km/h 59 % 0 mm
13:33 9.4 °C 1.8 °C 1029.3 hPa SSW 7.6 km/h 16.7 km/h 59 % 0 mm
13:38 9.4 °C 1.8 °C 1029.3 hPa SE 6 km/h 18.5 km/h 59 % 0 mm
13:48 9.6 °C 2.2 °C 1029.3 hPa South 2.6 km/h 9.3 km/h 60 % 0 mm
13:53 9.7 °C 2.3 °C 1029.3 hPa South 10.3 km/h 14.8 km/h 60 % 0 mm
13:58 9.7 °C 2.3 °C 1029.3 hPa SSE 5.1 km/h 14.8 km/h 60 % 0 mm
14:03 9.7 °C 2.3 °C 1029.3 hPa South 6.1 km/h 16.7 km/h 60 % 0 mm
14:08 9.7 °C 2.6 °C 1029.3 hPa SSW 6 km/h 11.3 km/h 61 % 0 mm
14:13 9.7 °C 2.8 °C 1029.3 hPa SW 4 km/h 5.6 km/h 62 % 0 mm
14:18 9.7 °C 2.6 °C 1029.3 hPa SSE 3.9 km/h 11.1 km/h 61 % 0 mm
14:23 9.7 °C 2.8 °C 1029.3 hPa South 3.2 km/h 5.6 km/h 62 % 0 mm
14:28 9.7 °C 2.9 °C 1029 hPa South 5.5 km/h 9.3 km/h 63 % 0 mm
14:33 9.7 °C 2.7 °C 1029.3 hPa SSE 4 km/h 11.1 km/h 62 % 0 mm
14:38 9.6 °C 2.9 °C 1029 hPa SSW 6.3 km/h 12.9 km/h 63 % 0 mm
14:58 9.5 °C 3.2 °C 1028.7 hPa SSW 9.3 km/h 18.5 km/h 65 % 0 mm
15:03 9.5 °C 3.4 °C 1028.7 hPa SSE 5.1 km/h 7.4 km/h 66 % 0 mm
15:13 9.5 °C 3.7 °C 1028.7 hPa SSE 1.1 km/h 5.6 km/h 67 % 0 mm
15:24 9.4 °C 3.8 °C 1028.7 hPa South 7.1 km/h 11.1 km/h 68 % 0 mm
15:34 9.4 °C 4.1 °C 1028.3 hPa Calm   1.9 km/h 69 % 0 mm
15:39 9.4 °C 4.1 °C 1028.3 hPa SE 0.5 km/h 5.6 km/h 69 % 0 mm
15:49 9.4 °C 4.2 °C 1028.3 hPa South 2.6 km/h 5.6 km/h 70 % 0 mm
15:54 9.4 °C 4.2 °C 1028.3 hPa Calm     70 % 0 mm
15:59 9.4 °C 4.4 °C 1028.3 hPa South 2.1 km/h 4.8 km/h 71 % 0 mm
16:04 9.4 °C 4.4 °C 1028.3 hPa Calm   3.7 km/h 71 % 0 mm
16:09 9.4 °C 4.7 °C 1028.3 hPa South 0.8 km/h 4.8 km/h 72 % 0 mm
16:19 9.5 °C 4.9 °C 1028 hPa SE 4.3 km/h 9.3 km/h 73 % 0 mm
16:29 9.5 °C 4.9 °C 1027.7 hPa SE 1.3 km/h 5.6 km/h 73 % 0 mm
16:34 9.6 °C 5.2 °C 1027.7 hPa SE 0.3 km/h 5.6 km/h 74 % 0 mm
16:45 9.5 °C 4.9 °C 1027.7 hPa Calm   1.6 km/h 73 % 0 mm
16:55 9.5 °C 4.9 °C 1027.7 hPa Calm     73 % 0 mm
17:00 9.4 °C 5.1 °C 1027.7 hPa Calm     74 % 0 mm
17:10 9.4 °C 5.2 °C 1027.7 hPa SE 0.2 km/h 1.9 km/h 75 % 0 mm
17:15 9.4 °C 5.2 °C 1027.3 hPa Calm   1.9 km/h 75 % 0 mm
17:20 9.3 °C 5.1 °C 1027.3 hPa SE 0.6 km/h 3.7 km/h 75 % 0 mm
17:25 9.3 °C 5.3 °C 1027.3 hPa Calm   1.9 km/h 76 % 0 mm
17:30 9.3 °C 5.3 °C 1027.3 hPa SE 0.3 km/h 3.7 km/h 76 % 0 mm
17:35 9.2 °C 5.6 °C 1027.3 hPa SE 0.2 km/h 3.7 km/h 78 % 0 mm
17:40 9.2 °C 5.6 °C 1027 hPa SE 2.7 km/h 5.6 km/h 78 % 0 mm
17:45 9.1 °C 5.7 °C 1027.3 hPa SE 1.6 km/h 4.8 km/h 79 % 0 mm
17:52 9.1 °C 5.8 °C 1027 hPa SE 2.1 km/h 4.8 km/h 80 % 0 mm
17:57 9.1 °C 5.9 °C 1027 hPa SE 0.8 km/h 3.2 km/h 81 % 0 mm
18:02 9.1 °C 6.2 °C 1027.3 hPa SE 0.6 km/h 1.9 km/h 82 % 0 mm
18:07 9.1 °C 6.2 °C 1027 hPa SE 0.2 km/h 3.7 km/h 82 % 0 mm
18:12 9 °C 6.1 °C 1027 hPa SE 0.3 km/h 1.9 km/h 82 % 0 mm
18:28 9 °C 6.6 °C 1026.6 hPa SE 0.3 km/h 3.7 km/h 85 % 0 mm
18:33 8.9 °C 6.7 °C 1026.6 hPa South 3.9 km/h 5.6 km/h 86 % 0 mm
18:38 9.1 °C 7 °C 1026.6 hPa SSW 2.6 km/h 5.6 km/h 87 % 0 mm
18:43 9.1 °C 7.2 °C 1026.6 hPa SSW 2.7 km/h 5.6 km/h 88 % 0 mm
18:48 9.2 °C 7.3 °C 1026.6 hPa SSW 0.6 km/h 3.2 km/h 88 % 0 mm
18:53 9.2 °C 7.3 °C 1026.3 hPa SSW 2.3 km/h 5.6 km/h 88 % 0 mm
18:58 9.3 °C 7.6 °C 1026.3 hPa SSW 1.6 km/h 5.6 km/h 89 % 0 mm
19:03 9.3 °C 7.6 °C 1026.3 hPa SSW 4.7 km/h 5.6 km/h 89 % 0 mm
19:08 9.3 °C 7.6 °C 1026.3 hPa SSW 3.1 km/h 5.6 km/h 89 % 0 mm
19:13 9.4 °C 7.7 °C 1026.3 hPa SSW 5 km/h 11.1 km/h 89 % 0 mm
19:18 9.5 °C 7.8 °C 1026.3 hPa South 1.6 km/h 3.7 km/h 89 % 0 mm
19:23 9.5 °C 7.8 °C 1026 hPa SSW 3.5 km/h 9.3 km/h 89 % 0 mm
19:28 9.6 °C 7.8 °C 1026 hPa SSW 2.6 km/h 5.6 km/h 89 % 0 mm
19:33 9.6 °C 7.9 °C 1026.3 hPa SSW 3.5 km/h 11.3 km/h 89 % 0 mm
19:38 9.7 °C 7.9 °C 1026.3 hPa SSW 0.2 km/h 5.6 km/h 89 % 0 mm
19:48 9.8 °C 7.9 °C 1026 hPa SSW 3.2 km/h 5.6 km/h 88 % 0 mm
19:53 9.9 °C 8.2 °C 1026 hPa SSW 6.4 km/h 9.3 km/h 89 % 0 mm
19:58 9.9 °C 8.1 °C 1025.6 hPa South 6.4 km/h 9.7 km/h 88 % 0 mm
20:03 10.1 °C 8.2 °C 1025.6 hPa SW 4.8 km/h 9.7 km/h 88 % 0 mm
20:08 10.1 °C 8.2 °C 1025.6 hPa SSW 4.2 km/h 5.6 km/h 88 % 0 mm
20:13 10.1 °C 8.2 °C 1025.6 hPa SW 5.5 km/h 11.1 km/h 88 % 0 mm
20:18 10.2 °C 8.3 °C 1025.6 hPa SSW 5.8 km/h 8 km/h 88 % 0 mm
20:28 10.2 °C 8.2 °C 1025.6 hPa South 3.4 km/h 9.3 km/h 87 % 0 mm
20:33 10.3 °C 8.4 °C 1025.3 hPa SSW 2.1 km/h 5.6 km/h 88 % 0 mm
20:38 10.3 °C 8.4 °C 1025.3 hPa South 5 km/h 9.7 km/h 88 % 0 mm
20:53 10.4 °C 8.5 °C 1025.3 hPa SSW 4 km/h 13 km/h 88 % 0 mm
20:58 10.4 °C 8.6 °C 1025.3 hPa SSW 4.8 km/h 13 km/h 88 % 0 mm
21:03 10.4 °C 8.6 °C 1025.3 hPa SSW 2.4 km/h 5.6 km/h 88 % 0 mm
21:08 10.4 °C 8.6 °C 1025.3 hPa SSW 3.4 km/h 7.4 km/h 88 % 0 mm
21:18 10.4 °C 8.6 °C 1025.3 hPa SSW 5.8 km/h 6.4 km/h 88 % 0 mm
21:24 10.4 °C 8.5 °C 1024.9 hPa SSW 2.3 km/h 5.6 km/h 88 % 0 mm
21:29 10.4 °C 8.5 °C 1025.3 hPa SSW 4.7 km/h 9.3 km/h 88 % 0 mm
21:34 10.3 °C 8.6 °C 1024.9 hPa South 3.4 km/h 8 km/h 89 % 0 mm
21:39 10.3 °C 8.6 °C 1024.9 hPa South 5 km/h 7.4 km/h 89 % 0 mm
21:44 10.3 °C 8.6 °C 1024.9 hPa SSW 3.9 km/h 8 km/h 89 % 0 mm
21:49 10.3 °C 8.6 °C 1024.9 hPa SSW 0.6 km/h 5.6 km/h 89 % 0 mm
21:54 10.3 °C 8.6 °C 1024.6 hPa SSW 4.3 km/h 7.4 km/h 89 % 0 mm
21:59 10.3 °C 8.6 °C 1024.6 hPa South 2.1 km/h 5.6 km/h 89 % 0 mm
22:04 10.3 °C 8.6 °C 1024.3 hPa SSW 7.2 km/h 9.7 km/h 89 % 0 mm
22:14 10.3 °C 8.6 °C 1024.3 hPa SSE 5.1 km/h 9.3 km/h 89 % 0 mm
22:20 10.3 °C 8.6 °C 1024.3 hPa SSW 7.9 km/h 13 km/h 89 % 0 mm
22:21 10.3 °C 8.6 °C 1024.3 hPa SSW 5.1 km/h 8 km/h 89 % 0 mm
22:23 10.3 °C 8.6 °C 1016.8 hPa SSW 4 km/h 5.6 km/h 89 % 0 mm
22:28 10.3 °C 8.6 °C 1016.5 hPa SSW 5 km/h 9.3 km/h 89 % 0 mm
22:29 10.3 °C 8.6 °C 1023.9 hPa South 3.9 km/h 7.4 km/h 89 % 0 mm
22:32 10.3 °C 8.6 °C 1023.9 hPa SSW 4.8 km/h 9.7 km/h 89 % 0 mm
22:37 10.3 °C 8.6 °C 1023.9 hPa SSW 7.1 km/h 11.1 km/h 89 % 0 mm
22:42 10.3 °C 8.6 °C 1023.9 hPa SW 3.9 km/h 7.4 km/h 89 % 0 mm
22:47 10.2 °C 8.5 °C 1023.9 hPa South 7.9 km/h 13 km/h 89 % 0 mm
22:52 10.2 °C 8.5 °C 1023.9 hPa WSW 5.3 km/h 9.3 km/h 89 % 0 mm
23:12 10.2 °C 8.6 °C 1023.6 hPa SSW 5.1 km/h 9.3 km/h 90 % 0 mm
23:17 10.1 °C 8.6 °C 1023.2 hPa SSW 6.1 km/h 11.1 km/h 90 % 0 mm
23:18 10.1 °C 8.6 °C 1023.2 hPa SSW 5 km/h 5.6 km/h 90 % 0 mm
23:23 10.1 °C 8.6 °C 1023.2 hPa SW 4.5 km/h 11.1 km/h 90 % 0 mm
23:33 10.1 °C 8.5 °C 1022.9 hPa SSW 5.5 km/h 9.3 km/h 90 % 0 mm
23:38 10.1 °C 8.7 °C 1022.9 hPa SSW 6.8 km/h 9.3 km/h 91 % 0 mm
23:43 10.1 °C 8.7 °C 1022.6 hPa South 7.7 km/h 16.7 km/h 91 % 0 mm
23:54 10.1 °C 8.7 °C 1022.2 hPa South 6.3 km/h 11.1 km/h 91 % 0 mm
23:59 10.1 °C 8.7 °C 1022.2 hPa SSW 6 km/h 14.8 km/h 91 % 0 mm
Crab Meadow Weather
Compliments of Weather Underground - 2.75 mb

Script developed by  Jim McMurry - jmcmurry@mwt.net Adapted for the template by  Wim van der Kuil - Leuven-Template.eu

Extremes: The greatest annual rainfall in the United States was 184.56 inches at Wynooches, Oxbow, Washington in 1931.